Other Public Products
Issued by NWS Charleston, SC

Current Version | Previous Version | Graphics & Text | Print | Product List | Glossary On
Versions: 1 2 3 4 5 6 7 8 9 10 11 12 13 14 15 16 17 18 19 20 21 22 23 24 25 26 27 28 29 30 31 32 33 34 35 36 37 38 39 40 41 42 43 44 45 46 47 48 49 50
000
FPUS82 KCHS 201412
OPUCHS

TEST...KCHS/KSAV Gateway Observations...TEST
National Weather Service Charleston SC
900 AM EST FRI JAN 20 2017

NOTE: "fair" indicates few or no clouds below 12,000 feet with no
significant weather and/or obstructions to visibility.

SCZ050-WAZ558-NCZ071-TXZ119-213-PAZ071-DCZ001-FLZ074-172-MI076-
NYZ176-178-MAZ016-IL014-TNZ027-NJZ106-GAZ044-MD014-201500-
...Gateway Observations for Charleston International...

CITY           SKY/WX    TMP DP  RH WIND       PRES   REMARKS
Chas Airport   CLOUDY    63  59  87 S6        29.91R
Seattle        CLOUDY    41  33  73 E8        29.20F
Charlotte      CLOUDY    54  50  86 SE6       29.87S
Dallas DFW     CLOUDY    52  38  58 SW12      29.64R
Dallas Love    CLOUDY    52  40  63 SW6       29.66R
Philladelphia  CLOUDY    37  34  89 CALM      30.01S
Wash National  CLOUDY    43  38  82 CALM      29.98S
Baltimore      LGT RAIN  39  37  92 E6        29.97F FOG     WCI  35
Miami          MOSUNNY   74  64  71 CALM      30.03R
Detroit        CLOUDY    36  34  92 NE10      29.68F FOG     WCI  28
Newark         CLOUDY    42  32  67 E3        30.02R
Laguardia      CLOUDY    42  32  67 NE8       30.01S
J F K          CLOUDY    43  28  55 E7        30.02S
Boston Logan   CLOUDY    37  31  78 NW3       30.04R
Ft. Lauderdale MOSUNNY   71  65  81 CALM      30.02R
Chicago O`Hare CLOUDY    38  37  97 E7        29.62S FOG     WCI  33
Chicago Midway CLOUDY    38  37  97 E8        29.62S FOG     WCI  32
Houston Bush   CLOUDY    61  59  93 S8        29.80R FOG
Houston Hobby  FOG       59  59 100 SW12      29.82R VSB 1/2
Nashville      PTSUNNY   55  53  93 S8        29.78R
Atlanta        PTSUNNY   64  61  90 SW8       29.86R

$$

GAZ044-118-TXZ119-213-NCZ071-DCZ001-MDZ014-506-PAZ021-071-NJZ106-
NYZ176-178-MAZ106-OHZ011-021-055-MIZ076-KYZ091-ILZ014-INZ047-
MNZ060-201500-
...Gateway Observations for Savannah International...

CITY           SKY/WX    TMP DP  RH WIND       PRES   REMARKS
Savannah Arpt  MOSUNNY   64  59  83 SW5       29.91R
Atlanta        PTSUNNY   64  61  90 SW8       29.86R
Charlotte      CLOUDY    54  50  86 SE6       29.87S
Dallas DFW     CLOUDY    52  38  58 SW12      29.64R
Houston Bush   CLOUDY    61  59  93 S8        29.80R FOG
Wash National  CLOUDY    43  38  82 CALM      29.98S
Wash Dulles    LGT RAIN  42  37  82 VRB3      29.96R
Baltimore      LGT RAIN  39  37  92 E6        29.97F FOG     WCI  35
Philadelphia   CLOUDY    37  34  89 CALM      30.01S
Newark         CLOUDY    42  32  67 E3        30.02R
Laguardia      CLOUDY    42  32  67 NE8       30.01S
J F K          CLOUDY    43  28  55 E7        30.02S
Boston         CLOUDY    37  31  78 NW3       30.04R
Pittsburg      LGT RAIN  40  39  97 SE7       29.72F FOG     WCI  35
Akron          LGT RAIN  41  38  89 SE14      29.67F FOG
Cleveland      LGT RAIN  44  39  82 SE9       29.67F
Cincinnati     LGT RAIN  54  53  97 SW9G18    29.68R
Columbus         N/A     46  46 100 S10       29.67R
Detroit        CLOUDY    36  34  92 NE10      29.68F FOG     WCI  28
Chicago O`Hare CLOUDY    38  37  97 E7        29.62S FOG     WCI  33
Minneapolis    DRIZZLE   35  33  92 SE7       29.62S FOG     WCI  29
Indianapolis   DRZL/FOG  50  50 100 SW9       29.64R VSB 1/4

$$




USA.gov is the U.S. government's official web portal to all federal, state and local government web resources and services.